Location: Champs
(48.8539°N, 2.6040°E)
Time: 21:53:01
(UTC+00:00)

deb Kosmos-2150 - Pass Details

Date: 22 August 2022
Orbit: 749 x 758 km, 74.1° (Epoch: 24 September)

Event Time Altitude Azimuth Distance (km) Brightness Sun altitude
Rises 03:27:37 0° 142° (SE) 3,188 ? -13.1°
Reaches altitude 10° 03:31:43 10° 110° (ESE) 2,274 ? -12.6°
Maximum altitude 03:33:19 11° 91° (E) 2,180 ? -12.3°
Drops below altitude 10° 03:34:55 10° 73° (ENE) 2,281 ? -12.1°
Sets 03:39:02 0° 41° (NE) 3,216 ? -11.6°
